Location: Le Domaine
(47.0333°N, 76.5361°W)
Time: 17:46:40
(UTC-05:00)

S-56A Canister/Altair - Pass Details

Date: 25 November 2019
Orbit: 633 x 2499 km, 38.9° (Epoch: 06 December)

Event Time Altitude Azimuth Distance (km) Brightness Sun altitude
Rises 12:53:49 0° 200° (SSW) 6,128 13.7 20.8°
Reaches altitude 10° 12:59:13 10° 188° (S) 4,994 13.8 20.6°
Maximum altitude 13:08:48 23° 145° (SE) 3,639 11.6 20.1°
Drops below altitude 10° 13:16:41 10° 99° (E) 4,052 11.2 19.6°
Sets 13:20:26 0° 86° (E) 4,745 11.3 19.4°
